Location: Chenango Forks
(42.2242°N, 75.8278°W)
Time: 17:17:50
(UTC-05:00)

Daily predictions for brighter satellites

Satellite Brightness Start Highest point End
(mag) Time Altitude Azimuth Time Altitude Azimuth Time Altitude Azimuth
Cosmos 921 Rocket 4.2 16:56:17 10° SSE 16:59:44 24° E 17:03:16 10° NE
SL-27 R/B 4.5 16:57:00 10° NW 17:00:23 35° WSW 17:03:41 10° S
Meteor 1-18 Rocket 4.3 16:56:04 10° S 17:01:42 70° E 17:07:28 10° NNE
IDEFIX/ARIANE 42P 2.8 16:58:58 10° SE 17:03:53 47° ENE 17:08:51 10° N
Genesis I 3.3 17:00:29 10° NW 17:04:25 85° WSW 17:08:19 10° SSE
Thor Agena Rocket 4.0 16:59:46 10° NNE 17:04:47 44° E 17:09:48 10° S
Abrixas 2.3 17:01:49 10° WNW 17:04:47 75° NNE 17:07:44 10° ESE
Okean 1 3.5 17:01:31 10° S 17:05:28 53° E 17:09:27 10° NNE
Cosmos 2251 Rocket 4.2 17:01:06 10° NNW 17:06:23 63° WSW 17:11:36 10° S
Intercosmos 25 4.5 17:04:16 10° NNE 17:06:27 17° ENE 17:08:44 10° ESE
Timation 2 Rocket 4.3 17:00:04 10° NNW 17:06:47 55° ENE 17:13:31 10° SE
Cosmos 1238 Rocket 2.1 17:04:13 10° S 17:07:10 87° ESE 17:10:28 10° N
Cosmos 1833 Rocket 3.2 17:02:14 10° N 17:07:30 38° ENE 17:12:43 10° SE
Cosmos 1346 Rocket 3.2 17:05:12 10° SSE 17:08:50 39° E 17:12:28 10° NNE
Cosmos 1536 Rocket 3.6 17:04:49 10° S 17:09:15 67° E 17:13:43 10° NNE
CZ-2C R/B 4.2 17:10:38 10° N 17:15:04 63° WNW 17:19:32 10° SSW
USA 234 3.5 17:09:30 10° NE 17:15:59 61° SE 17:22:25 10° SSW
Cosmos 2082 Rocket 2.3 17:11:20 10° NNW 17:16:53 53° ENE 17:22:26 10° SE
CRYOSAT 2 4.4 17:13:25 10° N 17:18:21 89° WNW 17:23:14 10° S
YAOGAN 1 2.6 17:15:13 10° SSE 17:19:26 56° ENE 17:23:42 10° N
PAYLOAD A 4.1 17:16:00 10° S 17:20:52 81° WSW 17:25:58 10° NNW
Cosmos 1500 3.1 17:20:33 10° N 17:24:23 68° E 17:28:13 10° SSE
Cosmos 1743 3.3 17:23:18 10° N 17:26:52 33° ENE 17:30:23 10° SE
CZ-2C R/B 2.5 17:21:52 10° SSE 17:26:54 78° ENE 17:32:05 10° N
Timation 1 Rocket 4.5 17:21:39 10° S 17:27:27 56° ESE 17:33:17 10° NNE
NOSS 3-4 (A) 4.1 17:22:59 10° NNW 17:29:38 45° NE 17:36:39 10° ESE
NOSS 3-4 (C) 4.1 17:23:05 10° NNW 17:29:44 45° NE 17:36:44 10° ESE
Nadezhda 3 Rocket 4.1 17:23:46 10° SSE 17:29:47 55° E 17:35:55 10° NNE
Cosmos 1455 Rocket 4.2 17:31:13 10° NNW 17:35:27 47° W 17:39:43 10° SSW
Meteor 1-19 Rocket 4.5 17:34:02 10° SSE 17:39:37 51° E 17:45:17 10° NNE
SL-8 R/B 4.3 17:35:55 10° W 17:40:31 46° NNW 17:43:47 18° NE
Cosmos 407 Rocket 4.3 17:38:24 10° N 17:42:44 27° ENE 17:47:04 10° ESE
SKYMED 2 4.1 17:39:26 10° NNE 17:43:27 37° E 17:47:29 10° SSE
Cosmos 1484 Rocket 2.9 17:41:53 10° SE 17:45:26 44° ENE 17:49:00 10° N
Cosmos 2056 Rocket 4.1 17:40:49 10° SSE 17:45:41 37° ESE 17:49:18 16° NE
ERBS 4.4 17:45:32 10° N 17:47:17 14° NNE 17:47:17 14° NNE
GRACE-2 3.9 17:45:05 10° SSE 17:47:47 52° E 17:49:49 16° NNE
GRACE-1 3.9 17:45:30 10° SSE 17:48:13 54° E 17:50:18 15° NNE
Cosmos 1809 Rocket 4.5 17:43:17 10° N 17:49:28 86° W 17:55:34 10° S
SMAP 3.6 17:47:00 10° S 17:51:36 61° W 17:56:14 10° NNW
Meteor 2-9 Rocket 4.3 17:50:06 10° N 17:55:18 44° ENE 18:00:22 10° SSE
Cosmos 2369 Rocket 3.7 17:52:04 10° SE 17:54:58 16° ESE 17:54:58 16° ESE
BREEZE-M R/B 4.5 17:44:28 10° WSW 17:55:36 65° NNW 17:59:07 22° NE
Okean 2 4.2 17:52:54 10° SSE 17:56:30 29° E 17:57:07 28° ENE
Cosmos 1975 4.4 17:52:53 10° NNW 17:56:40 38° W 18:00:23 10° SSW
SL-24 DEB 4.3 17:52:01 10° N 17:56:46 80° W 18:01:26 10° S
Cosmos 1892 Rocket 4.4 17:54:23 10° SSE 17:58:07 28° E 17:58:40 28° ENE
Cosmos 1624 Rocket 4.1 17:53:27 10° S 17:58:28 52° ESE 18:02:04 19° NE
Meteor 1-23 Rocket 4.4 17:56:49 10° SSE 18:02:16 49° E 18:07:33 11° NNE
Meteor 1-13 Rocket 4.3 17:57:30 10° S 18:03:13 83° W 18:09:06 10° N
Meteor 2-4 Rocket 3.6 17:58:29 10° S 18:03:42 57° E 18:08:57 10° NNE
Cosmos 1726 Rocket 4.0 17:59:34 10° N 18:03:45 38° ENE 18:07:54 10° SE
Okean 1-7 Rocket 3.6 17:59:38 10° S 18:04:09 86° W 18:08:38 10° N
Cosmos 1371 Rocket 4.0 17:59:06 10° S 18:04:26 73° ESE 18:08:53 15° NNE
CZ-4 R/B 3.7 18:04:05 10° SSW 18:07:40 28° W 18:11:14 10° NW
Tiangong 1 0.8 18:05:58 10° W 18:09:01 78° N 18:09:19 67° ENE
ISS -1.2 18:08:51 10° NW 18:10:47 16° N 18:10:47 16° N
Cosmos 1934 Rocket 3.9 18:06:02 10° N 18:12:14 64° E 18:18:28 10° SSE
MSX 4.2 18:06:41 10° S 18:12:24 66° WSW 18:18:08 10° NNW
BREEZE-M DEB (TANK) 4.2 18:09:25 10° WNW 18:15:00 32° N 18:15:38 30° NNE
NOSS 7 (H) 4.4 18:12:54 10° SSW 18:16:10 56° ESE 18:16:13 56° ESE
Cosmos 1340 4.1 18:17:08 10° SSE 18:18:56 24° SE 18:18:56 24° SE
Cosmos 1535 Rocket 4.5 18:16:10 10° N 18:22:29 86° W 18:28:40 10° S
Cosmos 1606 Rocket 3.4 18:18:52 10° N 18:23:22 74° E 18:27:49 10° SSE
METEOR-M 4.1 18:22:16 10° SSE 18:27:28 56° ENE 18:32:41 10° N
NOSS 2-1 (D) 4.4 18:23:50 10° WSW 18:27:31 42° NW 18:29:24 26° N
NOSS 2-1 (C) 4.4 18:24:29 10° WSW 18:28:12 42° NW 18:30:04 27° N
COSMO-SKYMED 1 2.9 18:28:03 15° N 18:31:35 64° WNW 18:35:52 10° SSW
Cosmos 1452 Rocket 4.0 18:29:39 10° S 18:33:52 40° ESE 18:33:52 40° ESE
Cosmos 1190 Rocket 3.9 18:29:31 10° NNW 18:34:47 88° ENE 18:40:00 10° SSE
Cosmos 2278 Rocket 4.4 18:32:23 10° W 18:36:24 20° NW 18:40:27 10° N
GEOS 3 Rocket 3.6 18:36:10 51° ENE 18:36:34 52° NE 18:41:32 10° NNW
Cosmos 1666 3.3 18:34:47 10° NNW 18:38:37 58° W 18:42:25 10° S
Cosmos 1025 Rocket 3.7 18:34:49 10° SSW 18:39:07 55° W 18:42:26 16° N
Cosmos 1153 Rocket 4.4 18:44:19 10° N 18:50:26 60° E 18:56:27 10° SSE
Cosmos 1833 Rocket 4.5 18:46:23 10° NW 18:51:18 31° WSW 18:56:10 10° SSW
Cosmos 1605 Rocket 4.0 18:51:26 10° N 18:57:44 83° W 19:03:54 10° S
USA 234 3.9 18:56:14 32° NNE 18:58:52 47° NNW 19:05:03 10° W
CZ-3B DEB 4.0 18:55:23 10° WNW 19:00:45 39° N 19:04:32 30° NE
BREEZE M DEB (TANK) 4.0 19:09:37 10° W 19:13:17 30° WNW 19:13:17 30° WNW
BREEZE M DEB (TANK) 4.2 19:26:05 10° WNW 19:30:51 73° SSW 19:34:19 45° SE
Cosmos 2369 Rocket 3.2 19:33:12 10° SSW 19:36:50 41° SW 19:36:50 41° SW
FALCON 9 R/B 3.6 19:33:45 10° W 19:48:50 46° SSW 19:49:06 46° SSW
